| time (UTC) | temp C | wind direction | speed KPH | gust KPH | rain 1hr cm | rain 24hr cm | rain mn cm | humidity % | barometer mb |
| 20260510190035 | 13 | 60 | 1.6 | 11.3 | 0.00 | 0.00 | 0.00 | 58 | 1014.9 |
| 20260510184536 | 13 | 56 | 0.0 | 8.0 | 0.00 | 0.00 | 0.00 | 59 | 1014.9 |
| 20260510183032 | 13 | 65 | 1.6 | 14.5 | 0.00 | 0.00 | 0.00 | 58 | 1014.9 |
| 20260510181530 | 14 | 96 | 6.4 | 12.9 | 0.00 | 0.00 | 0.00 | 57 | 1014.9 |
| 20260510180030 | 14 | 82 | 3.2 | 11.3 | 0.00 | 0.00 | 0.00 | 58 | 1014.8 |
| 20260510174531 | 14 | 81 | 6.4 | 16.1 | 0.00 | 0.00 | 0.00 | 58 | 1015.0 |
| 20260510173032 | 14 | 60 | 3.2 | 14.5 | 0.00 | 0.00 | 0.00 | 60 | 1015.0 |
| 20260510171533 | 14 | 94 | 8.0 | 17.7 | 0.00 | 0.00 | 0.00 | 58 | 1015.1 |
| 20260510170033 | 14 | 105 | 3.2 | 12.9 | 0.00 | 0.00 | 0.00 | 59 | 1015.3 |
| 20260510164531 | 14 | 115 | 4.8 | 12.9 | 0.00 | 0.00 | 0.00 | 60 | 1015.3 |
| 20260510163032 | 14 | 127 | 3.2 | 14.5 | 0.00 | 0.00 | 0.00 | 62 | 1015.4 |
| 20260510161530 | 14 | 92 | 3.2 | 12.9 | 0.00 | 0.00 | 0.00 | 64 | 1015.5 |
| 20260510160032 | 14 | 89 | 3.2 | 12.9 | 0.00 | 0.00 | 0.00 | 65 | 1015.7 |
| 20260510154534 | 14 | 95 | 4.8 | 16.1 | 0.00 | 0.00 | 0.00 | 63 | 1015.9 |
| 20260510153031 | 13 | 78 | 4.8 | 12.9 | 0.00 | 0.00 | 0.00 | 66 | 1015.9 |
| 20260510151534 | 13 | 167 | 4.8 | 16.1 | 0.00 | 0.00 | 0.00 | 67 | 1016.0 |
| 20260510150030 | 14 | 96 | 3.2 | 11.3 | 0.00 | 0.00 | 0.00 | 66 | 1016.1 |
| 20260510144532 | 14 | 86 | 3.2 | 8.0 | 0.00 | 0.00 | 0.00 | 66 | 1016.3 |
| 20260510143036 | 14 | 79 | 1.6 | 6.4 | 0.00 | 0.00 | 0.00 | 66 | 1016.4 |
| 20260510141533 | 14 | 96 | 1.6 | 6.4 | 0.00 | 0.00 | 0.00 | 66 | 1016.6 |
| 20260510140031 | 14 | 13 | 3.2 | 8.0 | 0.00 | 0.00 | 0.00 | 66 | 1016.7 |
| 20260510134531 | 14 | 34 | 4.8 | 11.3 | 0.00 | 0.00 | 0.00 | 66 | 1016.7 |
| 20260510133031 | 13 | 49 | 4.8 | 12.9 | 0.00 | 0.00 | 0.00 | 68 | 1017.1 |
| 20260510131533 | 13 | 49 | 4.8 | 16.1 | 0.00 | 0.00 | 0.00 | 69 | 1017.0 |
| 20260510130030 | 13 | 91 | 4.8 | 16.1 | 0.00 | 0.00 | 0.00 | 69 | 1017.2 |
| 20260510124536 | 13 | 103 | 3.2 | 12.9 | 0.00 | 0.00 | 0.00 | 70 | 1017.5 |
| 20260510123032 | 13 | 75 | 1.6 | 12.9 | 0.00 | 0.00 | 0.00 | 71 | 1017.4 |
| 20260510121530 | 13 | 84 | 3.2 | 12.9 | 0.00 | 0.00 | 0.00 | 69 | 1017.5 |
| 20260510120032 | 13 | 37 | 4.8 | 12.9 | 0.00 | 0.00 | 0.00 | 70 | 1017.7 |
| 20260510114528 | 13 | 104 | 4.8 | 11.3 | 0.00 | 0.00 | 0.00 | 70 | 1017.7 |
| 20260510113037 | 13 | 131 | 3.2 | 9.7 | 0.00 | 0.00 | 0.00 | 69 | 1017.9 |
| 20260510111536 | 13 | 127 | 1.6 | 9.7 | 0.00 | 0.00 | 0.00 | 70 | 1018.0 |
| 20260510110036 | 13 | 91 | 3.2 | 9.7 | 0.00 | 0.00 | 0.00 | 72 | 1018.1 |
| 20260510104532 | 13 | 72 | 4.8 | 12.9 | 0.00 | 0.00 | 0.00 | 72 | 1018.2 |
| 20260510103029 | 12 | 82 | 6.4 | 14.5 | 0.00 | 0.00 | 0.00 | 74 | 1018.2 |
| 20260510101533 | 12 | 105 | 4.8 | 14.5 | 0.00 | 0.00 | 0.00 | 75 | 1018.2 |
| 20260510100032 | 12 | 103 | 4.8 | 14.5 | 0.00 | 0.00 | 0.00 | 75 | 1018.3 |
| 20260510094529 | 12 | 86 | 3.2 | 12.9 | 0.00 | 0.00 | 0.00 | 76 | 1018.4 |
| 20260510093055 | 12 | 45 | 3.2 | 12.9 | 0.00 | 0.00 | 0.00 | 77 | 1018.5 |
| 20260510091530 | 12 | 81 | 4.8 | 12.9 | 0.00 | 0.00 | 0.00 | 76 | 1018.6 |
| 20260510090043 | 12 | 95 | 4.8 | 14.5 | 0.00 | 0.00 | 0.00 | 76 | 1018.6 |
| 20260510084532 | 12 | 86 | 3.2 | 14.5 | 0.00 | 0.00 | 0.00 | 76 | 1018.6 |
| 20260510083032 | 12 | 79 | 4.8 | 14.5 | 0.00 | 0.00 | 0.00 | 77 | 1018.7 |
| 20260510081532 | 11 | 65 | 6.4 | 16.1 | 0.00 | 0.00 | 0.00 | 79 | 1018.8 |
| 20260510080030 | 11 | 32 | 4.8 | 14.5 | 0.00 | 0.00 | 0.00 | 81 | 1018.6 |
| 20260510074533 | 11 | 66 | 4.8 | 16.1 | 0.00 | 0.00 | 0.00 | 81 | 1018.6 |
| 20260510073032 | 10 | 119 | 6.4 | 17.7 | 0.00 | 0.00 | 0.00 | 81 | 1018.5 |
| 20260510071533 | 10 | 44 | 3.2 | 16.1 | 0.00 | 0.00 | 0.00 | 81 | 1018.3 |
| 20260510070030 | 10 | 91 | 3.2 | 16.1 | 0.00 | 0.00 | 0.00 | 81 | 1018.0 |
| 20260510064533 | 10 | 161 | 4.8 | 12.9 | 0.00 | 0.00 | 0.00 | 81 | 1018.0 |
| 20260510063028 | 10 | 3 | 1.6 | 16.1 | 0.00 | 0.00 | 0.00 | 81 | 1018.0 |
| 20260510061530 | 10 | 165 | 4.8 | 24.1 | 0.00 | 0.00 | 0.00 | 80 | 1017.9 |
| 20260510060032 | 10 | 41 | 8.0 | 17.7 | 0.00 | 0.00 | 0.00 | 80 | 1017.8 |
| 20260510054531 | 11 | 93 | 3.2 | 16.1 | 0.00 | 0.00 | 0.00 | 79 | 1017.8 |
| 20260510053029 | 11 | 155 | 1.6 | 17.7 | 0.00 | 0.00 | 0.00 | 79 | 1017.7 |
| 20260510051528 | 11 | 6 | 3.2 | 20.9 | 0.00 | 0.00 | 0.00 | 79 | 1017.8 |
| 20260510050033 | 11 | 25 | 3.2 | 12.9 | 0.00 | 0.00 | 0.00 | 78 | 1017.7 |
| 20260510044540 | 11 | 86 | 4.8 | 20.9 | 0.00 | 0.00 | 0.00 | 78 | 1017.9 |
| 20260510043032 | 11 | 127 | 4.8 | 17.7 | 0.00 | 0.00 | 0.00 | 78 | 1017.8 |
| 20260510041529 | 11 | 131 | 4.8 | 20.9 | 0.00 | 0.00 | 0.00 | 78 | 1017.8 |
| 20260510040028 | 11 | 73 | 3.2 | 11.3 | 0.00 | 0.00 | 0.00 | 78 | 1017.8 |
| 20260510034532 | 11 | 88 | 3.2 | 9.7 | 0.00 | 0.00 | 0.00 | 78 | 1017.9 |
| 20260510033030 | 11 | 131 | 3.2 | 11.3 | 0.00 | 0.00 | 0.00 | 77 | 1017.9 |
| 20260510031532 | 11 | 91 | 3.2 | 17.7 | 0.00 | 0.00 | 0.00 | 77 | 1018.0 |
| 20260510030037 | 12 | 104 | 6.4 | 17.7 | 0.00 | 0.00 | 0.00 | 76 | 1018.0 |
| 20260510024528 | 12 | 101 | 8.0 | 14.5 | 0.00 | 0.00 | 0.00 | 75 | 1018.1 |
| 20260510023032 | 12 | 86 | 1.6 | 9.7 | 0.00 | 0.00 | 0.00 | 76 | 1018.1 |
| 20260510021533 | 12 | 83 | 4.8 | 9.7 | 0.00 | 0.00 | 0.00 | 77 | 1017.9 |
| 20260510020032 | 12 | 55 | 4.8 | 14.5 | 0.00 | 0.00 | 0.00 | 77 | 1017.8 |
| 20260510014529 | 12 | 82 | 3.2 | 14.5 | 0.00 | 0.00 | 0.00 | 78 | 1017.9 |
| 20260510013030 | 12 | 79 | 4.8 | 19.3 | 0.00 | 0.00 | 0.00 | 78 | 1017.9 |
| 20260510011530 | 12 | 89 | 6.4 | 14.5 | 0.00 | 0.00 | 0.00 | 77 | 1017.9 |
| 20260510010029 | 12 | 82 | 3.2 | 12.9 | 0.00 | 0.00 | 0.00 | 77 | 1017.9 |
| 20260510004532 | 13 | 136 | 1.6 | 14.5 | 0.00 | 0.00 | 0.00 | 78 | 1017.9 |
| 20260510003030 | 13 | 120 | 4.8 | 11.3 | 0.00 | 0.00 | 0.00 | 78 | 1017.8 |
| 20260510001532 | 13 | 81 | 3.2 | 12.9 | 0.00 | 0.00 | 0.00 | 79 | 1018.0 |
| 20260510000033 | 13 | 59 | 3.2 | 9.7 | 0.00 | 0.00 | 0.00 | 79 | 1018.0 |
| 20260509234532 | 13 | 50 | 4.8 | 16.1 | 0.00 | 0.00 | 0.00 | 79 | 1017.8 |
| 20260509233030 | 13 | 105 | 4.8 | 14.5 | 0.00 | 0.00 | 0.00 | 79 | 1017.8 |
| 20260509231535 | 13 | 91 | 6.4 | 19.3 | 0.00 | 0.00 | 0.00 | 79 | 1017.7 |
| 20260509230032 | 13 | 6 | 9.7 | 19.3 | 0.00 | 0.00 | 0.00 | 79 | 1017.7 |
| 20260509224538 | 13 | 99 | 6.4 | 14.5 | 0.00 | 0.00 | 0.00 | 79 | 1017.6 |
| 20260509223034 | 13 | 96 | 6.4 | 24.1 | 0.00 | 0.00 | 0.00 | 80 | 1017.6 |
| 20260509221531 | 13 | 329 | 4.8 | 16.1 | 0.00 | 0.00 | 0.00 | 80 | 1017.7 |
| 20260509220035 | 13 | 125 | 3.2 | 14.5 | 0.00 | 0.00 | 0.00 | 80 | 1017.6 |
| 20260509214532 | 13 | 79 | 3.2 | 16.1 | 0.00 | 0.00 | 0.00 | 80 | 1017.7 |
| 20260509213032 | 13 | 65 | 6.4 | 20.9 | 0.00 | 0.00 | 0.00 | 79 | 1017.7 |
| 20260509211537 | 14 | 141 | 3.2 | 16.1 | 0.00 | 0.00 | 0.00 | 79 | 1017.5 |
| 20260509210031 | 14 | 356 | 3.2 | 20.9 | 0.00 | 0.00 | 0.00 | 79 | 1017.5 |
| 20260509204530 | 14 | 11 | 3.2 | 14.5 | 0.00 | 0.00 | 0.00 | 79 | 1017.6 |
| 20260509203031 | 14 | 165 | 6.4 | 19.3 | 0.00 | 0.00 | 0.00 | 78 | 1017.6 |
| 20260509201530 | 14 | 28 | 6.4 | 19.3 | 0.00 | 0.00 | 0.00 | 78 | 1017.5 |
| 20260509200031 | 14 | 94 | 6.4 | 19.3 | 0.00 | 0.00 | 0.00 | 78 | 1017.4 |
| 20260509194532 | 15 | 42 | 4.8 | 19.3 | 0.00 | 0.00 | 0.00 | 78 | 1017.3 |
| 20260509193032 | 15 | 345 | 8.0 | 20.9 | 0.00 | 0.00 | 0.00 | 78 | 1017.3 |
| 20260509191534 | 15 | 34 | 4.8 | 19.3 | 0.00 | 0.00 | 0.00 | 78 | 1017.2 |